Temp
-11 -11 -11 -12 -11 -11 -11 -11 -11 -11 -11 -11 -11 -10 -10 -10 -10 -11 -10 -10 -10 -11 -11 -11 -11 -11 -10 -11 -11 -11 -11 -11 -11 -11 -11 -11 -11 -11 -11 -11 -11 -11 -11 -11
-11 -11 -12 -11 -11 -11 -11 -11 -11 -11 -11 -10 -10 -10 -10 -10 -11 -11 -10 -10 -11 -11 -11 -11 -11 -11 -11 -11 -11 -11 -11 -11 -11 -11 -11 -11 -11 -12 -11 -11 -11 -11 -11 -12
-11 -11 -12 -11 -11 -11 -11 -11 -11 -11 -11 -10 -10 -10 -10 -10 -10 -11 -11 -11 -11 -11 -11 -11 -11 -11 -11 -11 -11 -11 -11 -11 -11 -11 -11 -11 -11 -11 -12 -11 -11 -11 -11 -12
-12 -12 -12 -11 -11 -12 -11 -11 -12 -11 -11 -11 -10 -9 -10 -10 -10 -10 -11 -11 -11 -11 -11 -11 -11 -11 -11 -11 -11 -11 -11 -11 -11 -11 -11 -11 -11 -12 -12 -11 -11 -11 -12 -12
-12 -12 -12 -12 -12 -12 -11 -12 -11 -11 -11 -10 -10 -10 -9 -10 -10 -11 -11 -11 -11 -11 -11 -11 -11 -11 -11 -11 -11 -11 -11 -11 -11 -11 -11 -11 -11 -12 -12 -12 -12 -11 -12 -12
-12 -12 -12 -12 -12 -12 -12 -12 -12 -12 -11 -11 -10 -10 -9 -10 -10 -11 -11 -11 -11 -11 -11 -11 -11 -11 -11 -11 -11 -11 -11 -11 -11 -11 -11 -11 -11 -11 -12 -12 -12 -12 -12 -12
-13 -13 -13 -13 -13 -12 -12 -13 -13 -12 -12 -10 -11 -11 -10 -10 -10 -10 -11 -11 -11 -11 -11 -11 -11 -11 -11 -11 -11 -11 -11 -11 -11 -11 -11 -11 -11 -11 -11 -12 -12 -12 -12 -12
-14 -13 -13 -13 -13 -14 -14 -14 -13 -13 -12 -11 -11 -10 -10 -10 -10 -11 -11 -11 -11 -11 -11 -11 -11 -11 -11 -11 -11 -12 -11 -11 -11 -11 -11 -11 -11 -11 -11 -11 -11 -12 -12 -12
-14 -14 -14 -14 -14 -15 -14 -13 -14 -14 -13 -13 -11 -10 -10 -11 -11 -12 -12 -12 -11 -12 -12 -12 -12 -12 -12 -12 -12 -12 -12 -12 -12 -12 -12 -12 -11 -12 -12 -12 -12 -12 -12 -13
-16 -15 -14 -15 -15 -15 -15 -15 -15 -15 -14 -14 -12 -11 -10 -11 -12 -13 -12 -12 -12 -12 -12 -12 -12 -12 -12 -12 -11 -11 -12 -12 -12 -12 -12 -12 -12 -12 -12 -12 -12 -12 -13 -13
-17 -16 -15 -15 -15 -16 -16 -16 -16 -16 -16 -15 -13 -12 -11 -12 -12 -12 -12 -13 -13 -13 -13 -13 -13 -12 -12 -12 -12 -12 -12 -12 -12 -12 -12 -12 -12 -12 -13 -13 -13 -13 -13 -14
-17 -16 -16 -16 -16 -16 -16 -16 -16 -16 -16 -16 -15 -12 -12 -13 -14 -13 -14 -14 -14 -13 -14 -14 -13 -13 -13 -13 -13 -13 -12 -12 -12 -12 -12 -12 -12 -12 -13 -13 -14 -13 -13 -14
-17 -17 -17 -17 -16 -16 -17 -17 -17 -17 -17 -15 -16 -12 -13 -14 -14 -14 -15 -15 -14 -14 -14 -14 -14 -14 -14 -14 -14 -14 -14 -13 -13 -13 -12 -12 -13 -13 -13 -13 -13 -14 -14 -15
-17 -17 -17 -17 -17 -17 -16 -17 -17 -17 -17 -16 -16 -14 -13 -14 -14 -15 -15 -15 -15 -15 -15 -14 -14 -14 -15 -15 -14 -14 -14 -14 -14 -14 -13 -13 -13 -13 -14 -13 -14 -14 -14 -14
-18 -17 -17 -17 -17 -17 -17 -17 -17 -17 -17 -17 -15 -16 -13 -15 -15 -15 -15 -15 -15 -15 -15 -15 -15 -15 -15 -16 -15 -15 -15 -16 -15 -15 -15 -14 -14 -14 -14 -14 -15 -15 -15 -16
-18 -18 -18 -18 -19 -19 -18 -17 -17 -17 -17 -18 -17 -16 -15 -14 -15 -16 -15 -15 -15 -15 -15 -15 -15 -15 -15 -15 -17 -17 -17 -17 -17 -16 -16 -16 -15 -15 -15 -15 -15 -16 -16 -16
-20 -20 -20 -19 -20 -21 -19 -16 -18 -18 -19 -20 -21 -19 -19 -17 -16 -15 -16 -16 -16 -15 -15 -15 -15 -16 -16 -16 -16 -17 -18 -18 -18 -18 -17 -17 -17 -17 -17 -17 -17 -17 -17 -17
-21 -21 -22 -21 -22 -21 -17 -18 -19 -20 -21 -21 -21 -21 -21 -20 -18 -19 -19 -19 -18 -18 -17 -18 -17 -18 -18 -17 -17 -17 -17 -18 -18 -18 -18 -18 -18 -18 -18 -17 -17 -17 -17 -17
-22 -23 -23 -22 -22 -21 -18 -18 -21 -22 -21 -21 -21 -21 -21 -21 -20 -19 -20 -20 -20 -19 -19 -19 -19 -19 -19 -18 -18 -18 -19 -19 -18 -18 -18 -18 -19 -18 -18 -18 -18 -18 -18 -18
-23 -23 -23 -23 -23 -22 -19 -20 -22 -23 -22 -21 -22 -22 -22 -22 -22 -20 -21 -21 -20 -20 -21 -20 -20 -20 -19 -19 -19 -20 -20 -20 -20 -20 -20 -20 -19 -19 -19 -19 -18 -19 -18 -18
-24 -24 -24 -24 -24 -23 -21 -22 -23 -24 -23 -22 -22 -22 -22 -22 -22 -22 -22 -21 -21 -21 -21 -21 -21 -20 -20 -20 -21 -21 -20 -20 -20 -20 -20 -20 -20 -20 -20 -20 -19 -19 -19 -19
-24 -24 -24 -24 -24 -24 -22 -22 -23 -23 -23 -23 -23 -22 -22 -22 -22 -22 -22 -21 -21 -21 -21 -21 -20 -20 -21 -21 -21 -21 -20 -20 -20 -20 -20 -20 -20 -21 -20 -20 -19 -19 -19 -19
-25 -24 -25 -25 -24 -24 -23 -23 -23 -23 -23 -24 -23 -24 -23 -23 -23 -23 -22 -22 -22 -22 -21 -21 -21 -21 -21 -21 -21 -21 -21 -21 -21 -21 -21 -21 -21 -21 -21 -20 -20 -20 -20 -20
-25 -25 -25 -25 -24 -25 -25 -25 -25 -25 -25 -25 -25 -25 -25 -25 -24 -24 -24 -23 -23 -23 -22 -22 -22 -22 -22 -21 -22 -22 -22 -22 -22 -22 -21 -21 -21 -21 -21 -22 -21 -21 -22 -21
-25 -25 -25 -26 -25 -26 -26 -27 -27 -27 -27 -27 -27 -26 -26 -26 -25 -25 -25 -25 -24 -24 -24 -24 -24 -24 -23 -23 -23 -23 -23 -23 -23 -22 -23 -22 -22 -22 -22 -22 -21 -22 -22 -22
-25 -26 -27 -26 -26 -27 -26 -26 -27 -27 -26 -27 -27 -27 -27 -27 -27 -26 -26 -26 -26 -25 -25 -25 -25 -25 -25 -24 -24 -24 -24 -23 -23 -23 -23 -24 -23 -23 -23 -23 -23 -23 -23 -23
Height
5805 5809 5813 5815 5817 5819 5822 5824 5828 5829 5833 5835 5836 5839 5843 5845 5848 5851 5853 5855 5855 5857 5856 5858 5859 5860 5861 5860 5860 5859 5859 5858 5856 5855 5854 5853 5851 5850 5847 5845 5843 5840 5837 5834
5800 5804 5805 5808 5811 5814 5816 5819 5822 5824 5825 5827 5829 5834 5837 5839 5843 5845 5847 5850 5850 5850 5850 5851 5852 5854 5854 5853 5854 5854 5854 5852 5850 5849 5847 5847 5846 5844 5841 5838 5835 5833 5830 5828
5792 5797 5798 5802 5804 5807 5810 5813 5815 5818 5819 5821 5822 5825 5831 5834 5837 5839 5841 5843 5844 5844 5844 5844 5846 5847 5848 5848 5846 5847 5847 5846 5845 5843 5841 5840 5839 5838 5835 5831 5828 5826 5823 5820
5784 5787 5791 5795 5798 5800 5803 5806 5808 5811 5813 5814 5818 5814 5825 5829 5831 5833 5835 5836 5836 5837 5838 5839 5839 5840 5841 5841 5839 5839 5839 5840 5838 5836 5834 5833 5831 5830 5828 5825 5821 5818 5816 5813
5777 5780 5783 5787 5790 5792 5796 5798 5800 5803 5805 5808 5812 5809 5819 5824 5825 5826 5827 5829 5830 5831 5831 5831 5831 5831 5832 5833 5832 5832 5831 5832 5831 5829 5827 5825 5823 5822 5820 5818 5814 5810 5807 5804
5766 5770 5774 5777 5781 5784 5787 5789 5790 5793 5797 5800 5804 5806 5804 5817 5818 5818 5820 5821 5822 5822 5823 5822 5822 5823 5822 5823 5823 5822 5821 5821 5820 5820 5818 5817 5814 5813 5812 5809 5807 5803 5800 5796
5755 5760 5764 5767 5771 5773 5776 5778 5781 5785 5786 5793 5793 5798 5797 5802 5810 5810 5811 5811 5812 5812 5812 5812 5812 5812 5812 5812 5811 5810 5810 5811 5809 5810 5809 5807 5805 5803 5802 5799 5797 5794 5791 5787
5742 5748 5753 5759 5762 5765 5767 5769 5771 5771 5776 5782 5783 5788 5793 5789 5796 5800 5799 5798 5799 5800 5801 5801 5801 5801 5800 5801 5800 5799 5799 5799 5798 5797 5798 5797 5795 5794 5793 5790 5787 5784 5781 5777
5733 5737 5743 5747 5750 5753 5756 5758 5763 5762 5765 5767 5773 5781 5784 5784 5781 5782 5786 5788 5787 5787 5788 5788 5787 5787 5786 5787 5787 5787 5786 5786 5786 5785 5784 5784 5783 5782 5780 5779 5777 5773 5769 5765
5722 5727 5732 5736 5739 5742 5745 5749 5750 5752 5753 5755 5761 5768 5775 5774 5775 5769 5769 5771 5771 5772 5772 5773 5774 5775 5775 5774 5775 5774 5772 5772 5772 5770 5769 5769 5768 5768 5768 5767 5765 5761 5757 5752
5713 5716 5722 5725 5729 5733 5735 5736 5738 5741 5744 5744 5749 5756 5763 5762 5760 5760 5757 5757 5756 5756 5756 5756 5759 5761 5762 5761 5760 5760 5760 5759 5757 5757 5757 5756 5754 5754 5754 5752 5749 5747 5743 5739
5702 5706 5710 5715 5718 5721 5722 5724 5726 5728 5733 5735 5738 5744 5749 5749 5748 5747 5746 5744 5743 5740 5738 5740 5741 5741 5744 5746 5747 5747 5747 5746 5744 5744 5743 5742 5741 5739 5738 5736 5732 5730 5726 5722
5692 5696 5701 5704 5706 5708 5710 5714 5716 5718 5717 5723 5722 5739 5745 5736 5737 5737 5735 5730 5730 5731 5728 5725 5724 5725 5725 5727 5730 5730 5731 5730 5728 5729 5728 5728 5726 5723 5722 5719 5716 5712 5709 5706
5678 5683 5689 5693 5692 5694 5696 5700 5702 5704 5705 5710 5710 5720 5733 5726 5727 5726 5721 5719 5720 5718 5716 5713 5712 5713 5712 5711 5711 5711 5712 5711 5711 5712 5712 5711 5709 5705 5703 5701 5699 5696 5693 5691
5664 5670 5676 5679 5678 5678 5681 5684 5686 5687 5693 5689 5704 5696 5717 5714 5709 5707 5703 5707 5705 5705 5703 5700 5699 5698 5698 5699 5696 5694 5694 5693 5692 5692 5691 5691 5690 5689 5688 5686 5683 5680 5677 5675
5648 5652 5656 5659 5661 5661 5665 5675 5673 5674 5676 5671 5676 5674 5691 5694 5694 5687 5687 5691 5689 5690 5689 5686 5685 5682 5680 5680 5682 5680 5676 5675 5673 5674 5674 5672 5670 5669 5669 5668 5666 5665 5663 5660
5634 5636 5639 5641 5643 5643 5648 5661 5658 5659 5660 5657 5657 5665 5667 5670 5670 5667 5667 5667 5669 5670 5669 5667 5666 5665 5663 5662 5661 5662 5664 5661 5657 5655 5655 5654 5654 5653 5651 5651 5649 5647 5645 5644
5619 5623 5624 5624 5625 5623 5642 5645 5644 5643 5644 5645 5643 5644 5646 5646 5653 5653 5651 5649 5648 5647 5647 5646 5645 5644 5644 5644 5643 5641 5640 5642 5642 5641 5639 5636 5635 5636 5635 5634 5633 5632 5630 5629
5607 5608 5609 5608 5608 5612 5624 5635 5630 5623 5623 5627 5623 5625 5628 5626 5632 5639 5635 5631 5630 5628 5627 5626 5624 5623 5623 5623 5623 5622 5620 5619 5619 5619 5620 5620 5618 5617 5616 5616 5614 5613 5612 5611
5594 5594 5594 5595 5591 5594 5618 5623 5614 5602 5600 5610 5609 5608 5608 5607 5609 5620 5619 5617 5615 5612 5609 5606 5606 5604 5603 5603 5603 5603 5602 5601 5600 5600 5600 5599 5597 5596 5596 5596 5596 5595 5593 5592
5581 5581 5580 5582 5575 5576 5605 5609 5592 5581 5593 5589 5591 5593 5589 5589 5591 5598 5599 5599 5595 5595 5592 5589 5589 5589 5587 5586 5585 5585 5583 5581 5581 5581 5581 5580 5578 5577 5576 5576 5575 5574 5573 5573
5566 5564 5566 5566 5561 5559 5591 5586 5575 5567 5568 5571 5570 5574 5568 5568 5570 5572 5579 5579 5580 5576 5572 5568 5570 5570 5567 5567 5566 5566 5565 5564 5561 5560 5560 5560 5559 5558 5557 5556 5556 5555 5553 5553
5544 5550 5552 5551 5549 5551 5558 5563 5559 5550 5551 5549 5550 5549 5546 5547 5549 5551 5553 5557 5558 5556 5554 5552 5550 5550 5547 5546 5546 5546 5543 5543 5542 5540 5538 5538 5537 5536 5535 5535 5534 5534 5533 5532
5529 5534 5529 5532 5538 5537 5535 5539 5538 5531 5530 5530 5531 5530 5528 5529 5530 5530 5528 5533 5534 5533 5532 5530 5530 5530 5529 5526 5524 5524 5524 5523 5522 5520 5518 5518 5517 5516 5514 5513 5512 5511 5513 5512
5519 5517 5516 5511 5523 5517 5520 5520 5519 5514 5511 5512 5511 5511 5511 5507 5510 5509 5510 5510 5510 5510 5510 5508 5507 5507 5507 5506 5505 5504 5504 5504 5504 5503 5501 5499 5497 5497 5497 5496 5494 5493 5493 5494
5507 5501 5492 5495 5502 5492 5495 5500 5496 5493 5495 5495 5492 5497 5498 5490 5489 5489 5491 5490 5488 5488 5488 5487 5486 5485 5485 5485 5485 5484 5483 5483 5483 5480 5479 5481 5479 5480 5480 5479 5477 5476 5475 5475
Wind_Speed
31 31 30 30 30 30 30 29 29 30 29 30 31 29 28 29 27 25 23 23 21 19 23 20 19 18 17 17 18 19 20 21 23 22 23 23 22 23 26 29 29 31 34 36
32 31 32 32 32 31 31 30 30 30 31 30 29 29 26 28 27 26 25 23 22 23 24 25 23 21 21 22 21 23 21 23 24 25 26 25 24 25 29 30 31 32 35 36
36 34 33 34 35 33 33 33 33 32 33 31 29 30 27 27 27 26 25 25 24 26 28 28 27 25 23 24 27 26 25 25 27 29 28 29 28 27 31 31 33 33 33 38
40 38 36 35 34 36 36 36 36 36 35 34 32 33 27 26 27 26 25 27 29 29 29 30 31 30 28 28 31 31 30 29 29 31 31 32 31 31 32 33 33 35 34 36
42 40 39 37 36 37 37 39 39 38 38 38 35 40 25 25 29 27 29 29 29 31 33 34 35 36 34 33 33 35 35 33 33 34 35 36 37 35 35 34 33 33 36 38
46 44 42 42 40 39 39 40 41 42 41 41 38 38 40 28 30 30 31 32 33 35 36 38 40 40 40 39 38 38 38 39 39 38 39 40 41 41 40 39 37 36 36 38
47 47 45 45 44 44 43 43 42 43 45 42 42 41 43 39 32 35 35 36 35 36 39 42 43 44 45 44 44 44 43 42 42 43 43 44 45 45 43 45 41 40 40 38
47 49 48 46 44 42 42 44 44 47 47 45 46 44 41 45 40 37 39 41 41 42 42 43 44 45 47 47 47 48 48 47 48 47 46 47 48 47 45 47 48 46 42 43
46 47 44 44 45 43 44 46 43 45 47 50 49 45 43 45 47 45 43 44 45 45 45 46 48 49 50 50 50 49 50 50 51 51 51 50 50 49 48 49 49 49 46 46
46 46 45 43 43 44 43 43 45 46 49 50 50 48 43 45 43 48 49 47 48 47 47 47 49 49 50 52 54 55 56 55 55 55 54 54 53 52 52 52 51 49 48 50
46 47 47 45 46 43 43 44 45 45 48 50 49 49 44 45 46 48 49 50 49 48 48 50 50 50 50 51 52 54 55 57 59 59 57 57 58 56 54 53 54 51 51 52
43 44 44 41 42 42 42 42 43 45 44 45 47 48 45 45 47 50 51 51 52 55 55 56 57 57 55 53 51 53 53 56 58 59 59 60 60 59 58 55 55 56 59 53
47 47 45 46 47 48 48 47 46 47 48 48 51 37 36 41 42 41 43 48 51 51 53 56 58 57 57 55 53 55 57 59 62 63 64 63 63 63 62 61 61 57 55 55
54 53 53 52 55 58 61 60 57 57 56 55 56 50 40 47 49 50 53 55 54 56 58 60 61 60 59 59 59 60 59 60 60 59 58 58 57 56 54 53 52 53 55 56
60 61 63 66 70 70 68 66 66 65 65 68 63 66 48 57 60 61 62 61 62 62 63 64 65 66 66 62 64 65 62 60 60 60 59 58 56 55 55 55 54 54 53 52
70 69 67 69 66 62 66 67 69 69 71 71 73 75 68 66 68 73 73 72 73 72 71 73 73 74 73 71 62 60 67 66 65 65 64 62 63 62 58 56 55 54 54 54
58 58 59 64 60 58 64 64 65 67 66 63 63 67 62 70 72 74 74 73 76 76 78 80 80 76 76 77 77 71 64 67 69 68 65 63 62 59 57 56 55 53 53 54
52 52 54 58 58 64 67 65 66 65 64 64 66 68 70 73 73 73 74 77 79 80 81 80 79 77 76 77 78 80 79 71 68 69 69 69 66 61 58 58 56 55 54 53
52 52 54 57 59 64 69 65 56 58 62 60 63 64 67 72 74 73 75 78 80 82 79 75 76 77 75 75 73 73 71 68 67 67 67 70 68 64 63 59 59 57 58 58
53 53 56 59 63 65 64 57 57 59 64 62 60 61 62 63 65 63 66 70 73 72 73 74 73 71 71 71 71 71 69 66 64 64 60 57 56 58 62 65 66 64 63 63
59 59 61 61 66 68 58 55 61 66 64 64 64 63 66 66 65 62 63 65 67 73 78 76 75 74 70 67 65 65 65 67 68 69 68 67 66 64 59 60 62 62 59 63
65 66 67 68 70 74 59 62 69 72 71 71 71 69 72 72 71 70 66 66 66 68 69 75 75 78 82 79 76 77 77 77 78 80 77 72 66 66 69 69 69 69 68 67
72 72 70 72 74 73 72 72 74 76 75 73 74 74 75 75 75 75 74 71 70 70 70 72 74 74 71 73 71 68 68 70 74 78 80 80 79 76 77 78 71 68 66 65
69 69 73 72 73 71 71 72 72 72 73 74 73 73 72 72 73 75 75 74 73 73 75 76 76 75 75 74 71 69 67 67 64 64 72 76 70 65 60 62 62 53 56 61
65 67 69 71 68 69 66 64 64 65 66 68 70 71 73 73 72 72 73 72 73 73 73 74 74 73 74 74 74 75 70 64 64 62 62 62 60 61 64 59 61 57 57 60
62 65 67 68 66 69 69 67 68 70 70 69 69 67 66 69 69 68 68 68 67 67 68 69 70 72 73 75 75 75 74 73 73 77 75 71 62 62 56 52 50 45 52 52
Wind_Direction
235 237 240 240 240 242 241 242 244 247 245 246 243 239 242 247 248 253 255 255 260 253 254 258 259 269 274 282 289 292 296 294 301 305 307 312 317 322 321 320 311 297 290 287
238 239 240 242 246 247 248 247 246 247 248 245 246 244 241 246 250 252 249 255 260 255 256 256 258 264 275 280 284 288 289 294 295 299 300 304 309 315 318 313 312 311 298 292
239 241 243 243 245 246 249 250 250 249 250 249 246 246 242 246 248 248 250 251 252 249 252 259 266 268 271 277 282 285 286 288 292 295 295 299 304 309 312 310 307 305 303 298
242 243 244 248 248 247 247 249 251 251 251 252 252 253 239 244 250 249 249 251 250 251 254 259 265 267 269 272 279 281 286 288 290 289 292 293 295 301 304 311 309 302 298 296
244 243 245 246 247 248 249 250 252 253 254 254 254 262 245 244 249 251 251 251 256 256 258 258 261 266 268 269 273 279 282 283 286 287 290 293 293 296 298 306 309 307 299 294
242 243 244 245 245 246 250 251 251 252 254 255 258 260 262 252 252 250 252 256 256 256 256 259 263 266 270 273 273 274 276 277 279 282 285 289 290 293 294 299 304 309 301 295
242 243 241 242 243 244 245 248 251 253 254 256 257 257 266 266 258 260 260 259 255 253 256 258 259 262 266 268 270 271 272 273 273 276 278 282 286 289 291 295 300 302 305 298
239 239 242 242 245 247 248 248 249 253 254 254 255 259 262 268 266 265 266 266 266 263 258 259 260 262 264 265 267 269 271 273 274 274 275 278 281 284 286 290 293 296 298 301
237 239 238 241 242 243 245 248 251 255 257 257 255 257 260 267 273 272 271 270 268 267 266 265 264 265 266 267 269 270 271 272 274 276 276 276 278 280 282 283 286 291 293 297
238 241 239 239 242 244 247 248 250 251 256 258 260 258 259 265 270 273 270 271 272 272 270 268 267 266 266 267 268 268 270 271 271 272 274 276 276 277 279 281 283 285 289 293
238 240 242 243 244 248 248 250 252 255 254 257 259 258 259 261 264 267 270 274 275 275 274 272 269 267 267 266 266 266 269 270 270 271 273 274 277 279 280 282 285 287 288 286
233 237 241 243 246 249 252 254 256 256 259 262 261 254 257 265 265 265 270 275 276 277 279 280 279 278 276 274 274 275 273 272 272 273 274 276 279 281 283 284 284 284 285 282
236 239 243 247 252 254 258 259 259 258 259 258 259 253 254 263 267 268 269 268 269 273 275 276 277 278 281 282 281 280 278 276 275 276 278 279 280 280 281 281 280 280 278 277
237 242 246 251 256 260 261 260 259 260 260 261 261 262 251 259 263 264 265 267 269 269 272 275 278 281 283 282 281 280 280 282 283 282 281 280 278 275 274 274 275 278 279 281
249 250 253 256 258 258 258 261 263 263 264 263 263 264 257 263 264 264 265 265 267 269 271 274 277 278 280 282 284 283 284 285 284 284 285 284 281 280 281 280 279 278 279 281
257 257 258 259 257 254 257 259 260 263 266 268 268 267 265 260 262 268 267 267 269 271 272 273 274 274 274 275 274 278 283 283 285 285 285 285 284 284 283 280 279 280 280 280
257 258 260 260 258 258 259 260 261 263 261 262 261 269 270 271 270 269 270 270 268 267 267 269 271 272 272 272 272 274 274 278 281 283 283 283 282 282 281 281 279 276 275 276
254 254 255 258 260 258 262 262 262 260 260 262 265 263 260 261 265 266 267 269 271 273 274 276 275 274 273 271 272 274 275 275 273 274 276 278 278 278 278 278 276 275 274 275
253 255 257 258 259 260 258 262 270 270 265 266 267 267 268 267 267 266 267 268 270 272 275 276 276 275 275 275 275 274 274 275 277 275 274 272 272 274 272 271 270 269 271 272
254 258 259 261 263 264 261 264 267 267 267 269 271 271 271 271 272 272 270 270 271 272 273 275 276 276 276 275 274 271 268 273 276 276 275 275 271 269 271 272 269 269 266 268
256 257 260 262 265 267 266 267 268 270 274 270 270 272 271 272 272 271 269 270 273 270 266 271 272 270 272 272 273 275 276 274 275 281 283 276 277 275 275 275 275 275 278 279
258 260 262 264 266 269 270 265 267 271 273 273 273 273 273 274 273 272 270 270 270 270 271 271 274 271 269 273 272 276 276 276 276 279 280 277 272 276 277 274 276 280 280 280
258 262 265 265 268 270 272 271 271 273 274 276 276 276 275 276 276 277 276 274 273 272 271 271 271 272 275 275 274 275 276 277 276 273 274 274 277 281 281 285 280 279 275 278
259 261 263 265 266 270 272 272 273 275 274 273 274 274 275 276 276 277 277 276 275 274 274 274 274 274 274 275 276 277 276 275 277 278 275 274 270 273 280 285 278 279 281 280
260 262 264 264 266 266 266 267 267 267 270 272 273 275 276 276 276 276 276 277 276 274 273 273 272 272 272 273 274 274 273 271 270 266 273 275 271 272 282 281 279 281 279 283
262 264 265 265 265 266 265 266 267 268 270 272 272 271 273 276 277 277 277 277 276 275 274 272 271 270 270 270 270 269 270 265 266 270 272 270 274 275 271 277 278 273 269 291